SCP
0 -0 -0 -0 0 0 0 0 0 0 0 0 0 0 0 0 0 0 0 0 0 0 0 0 -0 -0 -0 -0 -0 -0 -0 -0 -0 -0 -0 -0 -0 -0 -0 -0 -0 -0 -0
0 0 -0 -0 0 0 0 0 0 0 0 0 0 0 0 0 0 0 0 0 0 0 0 0 0 0 0 0 0 -0 -0 -0 -0 -0 -0 -0 -0 -0 -0 -0 -0 -0 -0
0 0 0 0 0 0 0 0 0 0 0 0 0 0 0 0 0 0 0 0 0 0 0 0 0 0 0 0 0 0 0 0 0 0 -0 0 0 0 -0 -0 -0 -0 -0
0 0 0 0 0 0 0 0 0 0 0 0 0 0 0 0 0 0 0 0 0 0 0 0 0 0 0 0 0 0 0 0 0 -0 -0 0 0 0 0 0 0 0 0
0 0 0 0 0 0 0 0 0 0 0 0 0 0 0 0 0 0 0 0 0 0 0 0 0 0 0 0 0 0 0 0 0 0 0 0 0 0 0 0 0 0 0
0 0 0 0 0 0 0 0 0 0 0 0 0 0 0 0 0 0 0 0 0 0 0 0 0 0 0 0 0 0 0 0 0 0 0 0 0 0 0 0 0 0 0
0 0 0 0 0 0 0 0 0 0 0 0 0 0 0 0 0 0 0 0 0 0 0 0 0 0 0 0 0 0 0 0 0 0 0 0 0 0 0 0 0 0 0
0 0 0 0 0 0 0 0 0 0 0 0 0 0 0 0 0 0 0 0 0 0 0 0 0 0 0 0 0 0 0 0 0 0 0 0 0 0 0 0 0 0 0
0 0 0 0 0 0 0 0 0 0 0 0 0 0 0 0 0 0 0 0 0 0 0 0 0 0 0 0 0 0 0 0 0 0 0 0 0 0 0 0 0 0 0
0 0 0 0 0 0 0 0 0 0 0 0 0 0 0 0 0 0 0 0 0 0 0 0 0 0 0 0 0 0 0 0 0 0 0 0 0 0 0 0 0 0 0
0 0 0 0 0 0 0 0 0 0 0 0 0 0 0 0 0 0 0 0 0 0 0 0 0 0 0 0 0 0 0 0 0 0 0 0 0 0 0 0 0 0 0
0 0 0 0 0 0 0 0 0 0 0 0 0 0 0 0 0 0 0 0 0 0 0 0 0 0 0 0 0 0 0 0 0 0 0 0 0 0 0 0 0 0 0
0 0 0 0 0 0 0 0 0 0 0 0 0 0 0 0 0 0 0 0 0 0 0 0 0 0 0 0 0 0 0 0 0 0 0 0 0 0 0 0 0 0 0
0 0 0 0 0 0 0 0 0 0 0 0 0 0 0 0 0 0 0 0 0 0 0 0 0 0 0 0 0 0 0 0 0 0 0 0 0 0 0 0 0 0 0
0 0 0 0 0 0 0 0 0 0 0 0 0 0 0 0 0 0 0 0 0 0 0 0 0 0 0 0 0 0 0 0 0 0 0 0 0 0 0 0 0 0 0
0 0 0 0 0 0 0 0 0 0 0 0 0 0 0 0 0 0 0 0 0 0 0 0 0 0 0 0 0 0 0 0 0 0 0 0 0 0 0 0 0 0 0
0 0 0 0 0 0 0 -0 0 0 0 0 -0 0 0 0 0 0 0 0 0 0 0 0 0 0 0 0 0 0 0 0 0 0 0 0 0 0 0 0 0 0 0
0 0 0 0 0 0 0 0 0 -0 0 0 0 -0 -0 0 0 0 0 0 0 0 0 0 0 0 0 0 0 0 0 0 0 0 0 0 0 0 0 0 0 0 0
0 0 0 0 0 0 0 0 0 0 -0 0 0 -0 -0 -0 0 0 0 0 0 0 0 0 0 0 0 0 0 0 0 0 0 0 0 0 0 0 0 0 0 0 0
0 0 0 0 0 0 0 0 0 0 0 0 -0 -0 -0 -0 -0 0 0 0 0 0 0 0 0 0 0 0 0 0 0 0 0 0 0 0 0 0 0 0 0 0 0
0 0 0 0 0 0 0 0 0 0 0 0 0 -0 -0 -0 -0 -0 -0 0 0 0 0 0 0 0 0 0 0 0 0 0 0 0 0 0 0 0 0 0 0 0 0
0 0 0 0 0 0 0 0 0 0 0 0 0 0 0 -0 -0 -0 -0 -0 0 0 0 0 0 0 0 0 0 0 0 0 0 0 0 0 0 0 0 0 0 0 0
0 0 0 0 0 0 0 0 0 0 0 0 0 0 0 0 -0 -0 -0 -0 -0 -0 0 0 0 0 0 0 0 0 0 0 0 0 0 0 0 0 0 0 0 0 0
0 0 0 0 0 0 0 0 0 0 0 0 0 0 0 0 0 0 -0 -0 -0 -0 0 0 0 0 0 0 0 0 0 0 0 0 0 0 0 0 0 0 0 0 0
0 0 0 0 0 0 0 0 0 0 0 0 0 0 0 0 0 0 0 -0 -0 -0 -0 0 0 0 0 0 0 0 0 0 0 0 0 0 0 0 0 0 0 0 0
0 0 0 0 0 0 0 0 0 0 0 0 0 0 0 0 0 0 0 0 -0 0 -0 -0 0 0 0 0 0 0 0 0 0 0 0 0 0 0 0 0 0 0 0
Wind_Speed_500mb
41 27 22 17 17 18 19 20 20 20 18 16 13 10 8 4 6 13 16 21 20 18 18 26 23 21 25 16 16 23 31 32 28 31 22 20 18 15 12 16 17 19 20
31 25 27 16 17 18 18 19 22 22 19 17 17 14 12 9 8 13 15 19 25 18 17 25 23 19 24 17 11 15 32 26 23 21 17 16 16 15 13 16 16 16 16
26 22 25 16 18 18 17 18 23 24 23 21 21 15 15 14 13 13 17 21 25 28 22 20 28 25 25 21 14 14 23 23 23 21 20 15 14 16 13 13 12 12 12
24 24 25 24 23 20 20 21 22 22 22 20 22 17 16 16 16 17 17 27 25 30 31 15 17 35 30 26 19 19 23 27 23 16 14 14 9 13 13 12 11 10 10
26 27 29 31 22 24 23 25 25 26 23 22 23 21 18 18 20 21 22 27 31 29 32 17 16 30 32 31 25 23 23 27 24 18 12 10 9 11 12 11 10 10 9
21 25 30 25 23 22 27 30 31 29 27 27 28 25 23 23 23 22 24 26 28 31 30 23 21 23 29 33 29 27 25 27 27 25 14 14 11 11 11 11 11 10 9
31 25 23 29 31 31 29 33 35 35 33 33 34 32 29 25 23 23 22 26 28 26 25 28 29 26 27 30 29 30 28 30 28 24 24 24 17 12 13 13 13 11 9
27 32 30 27 31 33 38 37 40 39 39 39 40 40 36 30 28 26 25 24 28 29 28 30 31 28 32 31 30 31 31 31 29 26 23 23 22 17 17 17 16 14 12
11 16 20 23 32 41 36 39 42 45 43 44 45 46 44 37 35 32 30 28 28 31 34 34 35 35 37 34 33 33 33 33 33 29 26 23 21 20 19 17 17 16 14
17 10 12 20 28 35 40 41 39 44 47 48 51 51 51 47 47 42 36 34 32 33 34 35 38 35 37 36 34 33 34 34 32 32 29 25 26 23 21 19 19 17 16
22 23 23 22 22 25 34 39 48 43 43 49 54 58 58 59 56 51 45 41 38 37 38 38 39 38 39 39 38 37 36 34 34 34 32 29 28 26 23 23 22 19 17
42 34 33 33 30 32 31 33 41 50 52 50 50 61 65 67 63 61 54 48 45 44 45 44 43 43 43 41 41 40 40 36 36 36 38 33 30 28 25 26 25 23 22
32 32 32 33 35 37 41 39 37 45 46 56 61 59 70 73 72 73 63 63 54 53 51 50 46 49 48 45 45 44 43 41 38 37 41 33 35 32 27 28 28 26 25
37 36 38 39 42 37 38 42 38 38 39 51 66 72 71 81 80 81 75 71 64 64 58 54 54 54 52 48 48 48 47 45 39 41 41 37 39 35 31 32 31 30 28
49 45 43 43 45 49 42 42 45 46 46 48 50 63 81 81 88 83 83 86 76 72 69 63 60 57 58 55 54 52 52 51 46 42 41 42 39 36 34 35 35 34 30
50 53 51 45 44 46 48 48 48 55 56 58 62 49 75 83 78 94 92 91 88 82 75 73 65 61 59 59 59 58 58 56 53 51 49 48 46 38 36 37 37 36 33
52 53 53 58 59 52 47 49 51 54 57 57 55 59 54 49 82 90 98 96 93 92 85 81 74 61 62 60 60 59 60 60 57 58 54 55 51 45 41 39 40 39 37
52 55 56 59 59 60 62 55 52 55 55 57 55 57 57 43 41 20 59 97 98 96 94 91 81 74 70 66 64 61 62 61 59 59 56 53 51 49 46 42 43 42 40
45 50 54 58 61 60 61 67 68 60 57 58 62 61 59 69 55 36 35 27 95 100 102 100 95 85 80 74 71 67 63 61 60 58 56 55 53 52 50 46 41 45 44
44 49 56 60 62 66 70 70 72 74 66 60 62 67 69 67 73 77 65 54 25 78 101 108 103 97 90 85 76 71 68 63 59 58 55 54 57 56 53 52 49 51 52
43 51 58 61 65 70 75 79 80 83 80 70 63 65 73 72 71 78 91 88 50 29 21 82 116 111 100 86 83 79 74 66 64 58 55 53 54 58 57 55 52 51 51
49 59 60 64 68 69 75 77 77 80 80 80 72 68 71 72 78 76 84 98 94 75 61 44 78 103 102 105 96 66 49 63 65 64 61 59 58 55 61 64 61 58 52
51 66 70 72 72 74 80 82 86 85 84 83 82 78 71 71 75 75 78 78 99 99 92 50 39 101 99 107 104 73 38 33 63 75 77 76 73 70 67 64 64 62 57
56 70 69 73 76 79 80 83 80 86 86 84 84 82 77 71 69 77 74 74 74 102 105 101 81 73 90 106 110 108 82 49 48 41 80 81 76 72 71 73 71 66 62
65 63 68 71 77 81 79 81 78 89 81 83 84 86 85 83 76 75 74 70 62 60 96 117 119 98 58 106 112 110 100 78 62 41 40 83 87 80 76 75 77 72 66
58 63 66 71 76 75 79 77 78 90 71 78 86 88 90 85 85 76 74 71 64 64 76 114 121 114 54 74 110 111 121 106 82 68 50 76 84 76 79 80 78 77 71
Wind_Direction_500mb
323 299 329 238 220 214 210 202 222 225 228 242 249 253 267 230 188 170 156 156 141 148 160 141 151 177 161 168 184 193 194 200 205 192 171 154 142 137 124 116 114 116 110
312 298 312 259 233 225 218 214 224 238 242 247 247 251 256 245 224 212 194 181 163 153 173 190 189 180 180 183 163 150 177 187 130 142 136 144 155 149 138 124 128 120 119
290 299 310 294 243 234 227 229 233 240 248 253 258 251 248 246 245 233 212 206 185 168 185 196 208 198 191 196 179 145 147 139 128 124 121 120 150 154 149 137 139 134 128
320 306 307 310 252 241 235 230 240 248 255 258 257 262 251 248 243 241 234 224 221 201 200 184 201 196 198 197 180 149 137 137 127 118 139 125 152 163 167 162 157 154 151
343 314 313 314 257 246 243 241 241 247 252 251 257 268 252 261 252 254 246 232 229 225 216 201 216 195 198 199 188 171 155 153 141 135 168 162 182 185 186 180 180 177 178
9 315 310 307 304 273 253 248 248 248 246 243 254 255 260 268 256 258 260 247 231 218 213 208 220 202 196 202 198 190 179 174 173 176 174 232 196 199 204 196 201 200 190
356 326 304 301 302 297 283 263 252 251 248 245 248 247 255 261 258 259 261 260 244 221 209 198 223 219 199 203 202 198 192 187 189 189 184 223 222 225 217 215 213 215 210
7 1 328 308 292 296 291 286 263 253 252 249 248 244 244 251 255 263 263 260 248 227 212 211 222 222 205 207 205 201 197 194 196 203 198 217 224 229 227 224 223 221 216
14 356 358 336 315 302 292 283 276 261 256 253 249 244 242 247 248 256 263 261 250 240 230 216 222 224 213 212 212 209 206 204 207 212 214 225 231 229 233 229 228 226 219
289 320 340 359 332 320 300 287 280 272 267 260 249 242 243 244 244 252 255 259 257 240 226 223 226 224 218 217 218 215 214 213 212 216 221 222 232 232 234 236 233 226 220
294 292 306 323 325 307 307 295 276 273 270 264 259 244 242 242 245 248 251 254 255 252 240 228 233 228 223 226 225 223 221 219 219 221 224 229 238 240 242 240 239 234 229
1 351 330 308 305 306 302 311 303 270 262 265 260 253 244 245 245 246 252 250 252 250 249 247 233 234 227 229 231 230 229 228 228 226 228 231 236 239 244 241 239 236 234
8 0 356 337 325 309 304 305 311 303 294 257 262 258 248 247 247 243 242 250 247 248 247 249 239 233 236 232 231 232 233 230 232 231 232 235 240 245 245 243 240 239 239
13 355 339 330 325 321 309 305 302 298 310 291 256 257 258 248 244 245 246 247 243 249 247 245 249 250 245 241 237 234 232 232 231 230 236 238 240 245 244 241 239 237 236
3 9 8 359 353 350 325 311 306 298 290 303 300 273 255 255 249 243 244 251 247 241 247 248 244 246 248 245 240 238 236 233 227 226 232 236 240 244 240 236 238 238 237
352 354 354 355 349 346 345 336 320 308 304 295 291 303 273 251 256 251 245 246 248 244 243 248 248 244 245 243 242 238 236 236 234 233 231 234 238 243 240 234 234 236 236
342 346 351 350 348 343 335 327 328 324 319 306 303 296 278 269 248 255 253 247 244 244 245 247 247 245 243 240 239 238 239 238 236 236 234 236 240 238 236 234 233 232 231
332 338 341 340 344 342 341 341 326 316 313 311 306 298 293 283 257 239 254 249 246 243 241 243 243 241 244 238 238 238 238 239 239 237 237 235 234 232 233 233 231 230 228
327 332 334 335 335 337 338 335 332 327 317 307 308 304 300 290 289 264 313 277 246 243 243 238 240 238 242 237 236 237 237 236 236 237 236 234 231 230 230 231 230 229 226
325 329 331 331 333 333 335 332 327 324 320 318 311 307 305 305 296 281 287 308 289 238 245 239 237 237 238 241 236 235 238 237 235 233 232 230 228 228 229 227 229 223 222
325 330 331 332 332 331 331 332 330 326 321 317 313 312 309 308 309 300 281 289 297 287 293 239 240 234 229 235 233 231 235 237 233 227 226 226 227 228 228 223 221 223 220
326 330 331 333 330 329 328 328 327 324 318 315 313 311 311 312 312 312 299 284 278 289 291 313 236 224 225 232 222 221 222 228 226 224 223 223 225 225 226 228 223 223 222
319 330 331 330 329 330 328 326 326 322 316 312 313 310 308 308 306 307 307 300 270 280 284 288 331 217 221 221 217 212 199 213 213 217 220 223 225 224 223 226 224 222 223
317 324 326 325 325 328 326 323 322 322 313 309 307 307 306 305 303 303 307 299 294 275 278 276 292 298 231 213 216 216 221 222 196 206 215 218 219 221 220 220 223 224 224
316 320 323 322 322 324 322 322 318 318 310 307 306 306 307 304 301 300 301 299 290 283 271 275 280 283 257 213 214 207 212 214 207 191 203 208 212 212 217 220 222 223 224
318 321 323 322 323 322 319 316 311 315 307 304 303 303 303 301 300 297 298 299 287 290 273 266 278 270 298 244 211 211 209 207 211 206 211 202 202 199 211 214 218 221 224
Wind_Speed_850mb
41 27 22 17 17 18 19 20 20 20 18 16 13 10 8 4 6 13 16 21 20 18 18 26 23 21 25 16 16 23 31 32 28 31 22 20 18 15 12 16 17 19 20
31 25 27 16 17 18 18 19 22 22 19 17 17 14 12 9 8 13 15 19 25 18 17 25 23 19 24 17 11 15 32 26 23 21 17 16 16 15 13 16 16 16 16
26 22 25 16 18 18 17 18 23 24 23 21 21 15 15 14 13 13 17 21 25 28 22 20 28 25 25 21 14 14 23 23 23 21 20 15 14 16 13 13 12 12 12
24 24 25 24 23 20 20 21 22 22 22 20 22 17 16 16 16 17 17 27 25 30 31 15 17 35 30 26 19 19 23 27 23 16 14 14 9 13 13 12 11 10 10
26 27 29 31 22 24 23 25 25 26 23 22 23 21 18 18 20 21 22 27 31 29 32 17 16 30 32 31 25 23 23 27 24 18 12 10 9 11 12 11 10 10 9
21 25 30 25 23 22 27 30 31 29 27 27 28 25 23 23 23 22 24 26 28 31 30 23 21 23 29 33 29 27 25 27 27 25 14 14 11 11 11 11 11 10 9
31 25 23 29 31 31 29 33 35 35 33 33 34 32 29 25 23 23 22 26 28 26 25 28 29 26 27 30 29 30 28 30 28 24 24 24 17 12 13 13 13 11 9
27 32 30 27 31 33 38 37 40 39 39 39 40 40 36 30 28 26 25 24 28 29 28 30 31 28 32 31 30 31 31 31 29 26 23 23 22 17 17 17 16 14 12
11 16 20 23 32 41 36 39 42 45 43 44 45 46 44 37 35 32 30 28 28 31 34 34 35 35 37 34 33 33 33 33 33 29 26 23 21 20 19 17 17 16 14
17 10 12 20 28 35 40 41 39 44 47 48 51 51 51 47 47 42 36 34 32 33 34 35 38 35 37 36 34 33 34 34 32 32 29 25 26 23 21 19 19 17 16
22 23 23 22 22 25 34 39 48 43 43 49 54 58 58 59 56 51 45 41 38 37 38 38 39 38 39 39 38 37 36 34 34 34 32 29 28 26 23 23 22 19 17
42 34 33 33 30 32 31 33 41 50 52 50 50 61 65 67 63 61 54 48 45 44 45 44 43 43 43 41 41 40 40 36 36 36 38 33 30 28 25 26 25 23 22
32 32 32 33 35 37 41 39 37 45 46 56 61 59 70 73 72 73 63 63 54 53 51 50 46 49 48 45 45 44 43 41 38 37 41 33 35 32 27 28 28 26 25
37 36 38 39 42 37 38 42 38 38 39 51 66 72 71 81 80 81 75 71 64 64 58 54 54 54 52 48 48 48 47 45 39 41 41 37 39 35 31 32 31 30 28
49 45 43 43 45 49 42 42 45 46 46 48 50 63 81 81 88 83 83 86 76 72 69 63 60 57 58 55 54 52 52 51 46 42 41 42 39 36 34 35 35 34 30
50 53 51 45 44 46 48 48 48 55 56 58 62 49 75 83 78 94 92 91 88 82 75 73 65 61 59 59 59 58 58 56 53 51 49 48 46 38 36 37 37 36 33
52 53 53 58 59 52 47 49 51 54 57 57 55 59 54 49 82 90 98 96 93 92 85 81 74 61 62 60 60 59 60 60 57 58 54 55 51 45 41 39 40 39 37
52 55 56 59 59 60 62 55 52 55 55 57 55 57 57 43 41 20 59 97 98 96 94 91 81 74 70 66 64 61 62 61 59 59 56 53 51 49 46 42 43 42 40
45 50 54 58 61 60 61 67 68 60 57 58 62 61 59 69 55 36 35 27 95 100 102 100 95 85 80 74 71 67 63 61 60 58 56 55 53 52 50 46 41 45 44
44 49 56 60 62 66 70 70 72 74 66 60 62 67 69 67 73 77 65 54 25 78 101 108 103 97 90 85 76 71 68 63 59 58 55 54 57 56 53 52 49 51 52
43 51 58 61 65 70 75 79 80 83 80 70 63 65 73 72 71 78 91 88 50 29 21 82 116 111 100 86 83 79 74 66 64 58 55 53 54 58 57 55 52 51 51
49 59 60 64 68 69 75 77 77 80 80 80 72 68 71 72 78 76 84 98 94 75 61 44 78 103 102 105 96 66 49 63 65 64 61 59 58 55 61 64 61 58 52
51 66 70 72 72 74 80 82 86 85 84 83 82 78 71 71 75 75 78 78 99 99 92 50 39 101 99 107 104 73 38 33 63 75 77 76 73 70 67 64 64 62 57
56 70 69 73 76 79 80 83 80 86 86 84 84 82 77 71 69 77 74 74 74 102 105 101 81 73 90 106 110 108 82 49 48 41 80 81 76 72 71 73 71 66 62
65 63 68 71 77 81 79 81 78 89 81 83 84 86 85 83 76 75 74 70 62 60 96 117 119 98 58 106 112 110 100 78 62 41 40 83 87 80 76 75 77 72 66
58 63 66 71 76 75 79 77 78 90 71 78 86 88 90 85 85 76 74 71 64 64 76 114 121 114 54 74 110 111 121 106 82 68 50 76 84 76 79 80 78 77 71
Wind_Direction_850mb
323 299 329 238 220 214 210 202 222 225 228 242 249 253 267 230 188 170 156 156 141 148 160 141 151 177 161 168 184 193 194 200 205 192 171 154 142 137 124 116 114 116 110
312 298 312 259 233 225 218 214 224 238 242 247 247 251 256 245 224 212 194 181 163 153 173 190 189 180 180 183 163 150 177 187 130 142 136 144 155 149 138 124 128 120 119
290 299 310 294 243 234 227 229 233 240 248 253 258 251 248 246 245 233 212 206 185 168 185 196 208 198 191 196 179 145 147 139 128 124 121 120 150 154 149 137 139 134 128
320 306 307 310 252 241 235 230 240 248 255 258 257 262 251 248 243 241 234 224 221 201 200 184 201 196 198 197 180 149 137 137 127 118 139 125 152 163 167 162 157 154 151
343 314 313 314 257 246 243 241 241 247 252 251 257 268 252 261 252 254 246 232 229 225 216 201 216 195 198 199 188 171 155 153 141 135 168 162 182 185 186 180 180 177 178
9 315 310 307 304 273 253 248 248 248 246 243 254 255 260 268 256 258 260 247 231 218 213 208 220 202 196 202 198 190 179 174 173 176 174 232 196 199 204 196 201 200 190
356 326 304 301 302 297 283 263 252 251 248 245 248 247 255 261 258 259 261 260 244 221 209 198 223 219 199 203 202 198 192 187 189 189 184 223 222 225 217 215 213 215 210
7 1 328 308 292 296 291 286 263 253 252 249 248 244 244 251 255 263 263 260 248 227 212 211 222 222 205 207 205 201 197 194 196 203 198 217 224 229 227 224 223 221 216
14 356 358 336 315 302 292 283 276 261 256 253 249 244 242 247 248 256 263 261 250 240 230 216 222 224 213 212 212 209 206 204 207 212 214 225 231 229 233 229 228 226 219
289 320 340 359 332 320 300 287 280 272 267 260 249 242 243 244 244 252 255 259 257 240 226 223 226 224 218 217 218 215 214 213 212 216 221 222 232 232 234 236 233 226 220
294 292 306 323 325 307 307 295 276 273 270 264 259 244 242 242 245 248 251 254 255 252 240 228 233 228 223 226 225 223 221 219 219 221 224 229 238 240 242 240 239 234 229
1 351 330 308 305 306 302 311 303 270 262 265 260 253 244 245 245 246 252 250 252 250 249 247 233 234 227 229 231 230 229 228 228 226 228 231 236 239 244 241 239 236 234
8 0 356 337 325 309 304 305 311 303 294 257 262 258 248 247 247 243 242 250 247 248 247 249 239 233 236 232 231 232 233 230 232 231 232 235 240 245 245 243 240 239 239
13 355 339 330 325 321 309 305 302 298 310 291 256 257 258 248 244 245 246 247 243 249 247 245 249 250 245 241 237 234 232 232 231 230 236 238 240 245 244 241 239 237 236
3 9 8 359 353 350 325 311 306 298 290 303 300 273 255 255 249 243 244 251 247 241 247 248 244 246 248 245 240 238 236 233 227 226 232 236 240 244 240 236 238 238 237
352 354 354 355 349 346 345 336 320 308 304 295 291 303 273 251 256 251 245 246 248 244 243 248 248 244 245 243 242 238 236 236 234 233 231 234 238 243 240 234 234 236 236
342 346 351 350 348 343 335 327 328 324 319 306 303 296 278 269 248 255 253 247 244 244 245 247 247 245 243 240 239 238 239 238 236 236 234 236 240 238 236 234 233 232 231
332 338 341 340 344 342 341 341 326 316 313 311 306 298 293 283 257 239 254 249 246 243 241 243 243 241 244 238 238 238 238 239 239 237 237 235 234 232 233 233 231 230 228
327 332 334 335 335 337 338 335 332 327 317 307 308 304 300 290 289 264 313 277 246 243 243 238 240 238 242 237 236 237 237 236 236 237 236 234 231 230 230 231 230 229 226
325 329 331 331 333 333 335 332 327 324 320 318 311 307 305 305 296 281 287 308 289 238 245 239 237 237 238 241 236 235 238 237 235 233 232 230 228 228 229 227 229 223 222
325 330 331 332 332 331 331 332 330 326 321 317 313 312 309 308 309 300 281 289 297 287 293 239 240 234 229 235 233 231 235 237 233 227 226 226 227 228 228 223 221 223 220
326 330 331 333 330 329 328 328 327 324 318 315 313 311 311 312 312 312 299 284 278 289 291 313 236 224 225 232 222 221 222 228 226 224 223 223 225 225 226 228 223 223 222
319 330 331 330 329 330 328 326 326 322 316 312 313 310 308 308 306 307 307 300 270 280 284 288 331 217 221 221 217 212 199 213 213 217 220 223 225 224 223 226 224 222 223
317 324 326 325 325 328 326 323 322 322 313 309 307 307 306 305 303 303 307 299 294 275 278 276 292 298 231 213 216 216 221 222 196 206 215 218 219 221 220 220 223 224 224
316 320 323 322 322 324 322 322 318 318 310 307 306 306 307 304 301 300 301 299 290 283 271 275 280 283 257 213 214 207 212 214 207 191 203 208 212 212 217 220 222 223 224
318 321 323 322 323 322 319 316 311 315 307 304 303 303 303 301 300 297 298 299 287 290 273 266 278 270 298 244 211 211 209 207 211 206 211 202 202 199 211 214 218 221 224